#timestamp,LO_Frequency,Hit,StdDev 
1599120015.5,286047005.7,N
1599120035.3,286047011.6,Y
1599120055.1,286047013.4,P
1599120075.9,286047012.9,N
1599120095.7,286047012.1,N
1599120115.6,286047010.1,N
1599120135.4,286047010.3,N
1599120155.2,286047010.4,N
1599120175.1,286047010.8,Y
1599120176.0,286047010.8,P
1599120195.8,286046999.5,N
1599120215.7,286046998.0,N
1599120235.5,286046993.8,N
1599120255.3,286046995.1,N
1599120275.2,286046994.9,N
1599120295.9,286046994.1,N
1599120315.7,286046993.1,N
1599120335.6,286046991.0,N
1599120355.4,286046988.7,N
1599120375.3,286046987.6,N
1599120395.1,286046987.8,N
1599120396.0,286046987.8,N
1599120415.8,286046987.9,N
1599120435.7,286046985.9,N
1599120455.5,286046984.0,N
1599120475.3,286046986.4,N
1599120495.2,286046982.8,N
1599120515.0,286046983.1,N
1599120515.9,286046983.1,N
1599120535.8,286046982.8,N
1599120555.6,286046981.0,N
1599120575.4,286046979.4,N
1599120595.3,286046978.1,N
1599120615.1,286046979.6,N
1599120635.9,286046977.4,N
1599120655.7,286046980.2,N
1599120675.5,286046978.1,N
1599120695.4,286046977.7,N
1599120715.2,286046978.3,N
1599120735.0,286046976.1,Y
1599120735.9,286046976.1,P
1599120755.8,286046991.6,N
1599120775.6,286046990.9,N
1599120795.5,286046991.7,N
1599120815.3,286046990.7,N
1599120835.1,286046990.3,N
1599120855.9,286046991.5,N
1599120875.7,286046991.2,N
1599120895.5,286046989.2,N
1599120915.4,286046987.0,N
1599120935.2,286046989.3,N
1599120955.1,286046988.9,N
1599120956.0,286046988.9,N
1599120975.8,286046989.4,N
1599120995.6,286046989.8,N
1599121015.5,286046987.0,Y
1599121035.3,286047001.0,P
1599121055.1,286047003.3,N
1599121075.9,286047001.8,N
1599121095.7,286047002.4,N
1599121115.6,286047000.6,N
1599121135.4,286047002.8,N
1599121155.2,286046998.1,N
1599121175.1,286047001.2,N
1599121176.0,286047001.2,N
1599121195.8,286046999.3,N
1599121215.7,286046995.0,N
1599121235.5,286046997.8,N
1599121255.3,286047001.0,N
1599121275.2,286047004.6,N
1599121295.0,286047008.9,N
1599121295.9,286047008.9,N
1599121315.7,286047010.3,N
1599121335.6,286047005.5,N
1599121355.4,286047006.8,N
1599121375.3,286047011.9,N
1599121395.1,286047009.9,N
1599121396.0,286047009.9,N
1599121415.8,286047007.8,N
1599121435.7,286047010.2,N
1599121455.5,286047009.7,N
1599121475.3,286047010.2,N
1599121495.2,286047010.2,N
1599121515.0,286047008.1,N
1599121515.9,286047008.1,N
1599121535.8,286047008.1,N
1599121555.6,286047007.4,N
1599121575.4,286047007.1,N
1599121595.3,286047005.3,N
1599121615.1,286047003.0,N
1599121635.8,286047003.9,N
1599121655.7,286047002.6,N
1599121675.5,286047002.7,N
1599121695.4,286047000.8,N
1599121715.2,286047000.9,N
1599121735.0,286047000.2,N
1599121735.9,286047000.2,N
1599121755.8,286047000.5,N
1599121775.6,286047001.1,N
1599121795.4,286046997.5,N
1599121815.3,286046998.2,N
1599121835.1,286047002.8,N
1599121855.9,286046998.7,N
1599121875.7,286046999.4,N
1599121895.5,286046999.8,N
1599121915.4,286047000.6,N
1599121935.2,286047001.0,N
1599121955.0,286047002.4,N
1599121955.9,286047002.4,N
1599121975.8,286046998.8,N
1599121995.6,286046998.2,N
1599122015.5,286047000.9,N
1599122035.3,286047000.3,N
1599122055.1,286047002.2,N
1599122075.9,286046999.9,N
1599122095.7,286047001.6,N
1599122115.6,286047005.6,N
1599122135.4,286047004.7,N
1599122155.2,286047003.7,N
1599122175.1,286047002.5,N
1599122176.0,286047002.5,N
1599122195.8,286047001.3,N
1599122215.6,286047002.1,N
1599122235.5,286047005.1,N
1599122255.3,286047007.8,Y
1599122275.2,286047009.4,P
1599122295.9,286047009.8,N
1599122315.7,286047006.2,N
1599122335.6,286047009.2,N
1599122355.4,286047005.2,N
1599122375.2,286047008.8,N
1599122395.1,286047007.8,N
1599122396.0,286047007.8,N
1599122415.8,286047007.8,Y
1599122435.7,286047000.7,P
1599122455.5,286047005.3,N
1599122475.3,286047002.9,N
1599122495.2,286047002.6,N
1599122515.0,286046999.9,N
1599122515.9,286046999.9,N
1599122535.7,286046996.7,N
1599122555.6,286047000.9,N
1599122575.4,286047000.0,N
1599122595.3,286046999.9,N
1599122615.1,286047003.1,N
1599122635.8,286047004.7,N
1599122655.7,286047004.7,N
1599122675.5,286047006.6,N
1599122695.4,286047010.4,Y
1599122715.2,286047008.2,P
1599122735.0,286047008.8,N
1599122735.9,286047008.8,P
1599122755.8,286047004.7,N
1599122775.6,286047005.8,N
1599122795.4,286047003.5,N
1599122815.3,286047005.9,N
1599122835.1,286047004.8,N
1599122855.9,286047006.0,N
1599122875.7,286047003.2,N
1599122895.5,286047003.9,N
1599122915.4,286047004.5,N
1599122935.2,286047008.3,Y
1599122955.1,286047001.0,P
1599122956.0,286047001.0,N
1599122975.8,286047001.9,N
1599122995.6,286046998.1,N
1599123015.5,286046998.8,N
1599123035.3,286046999.1,N
1599123055.1,286046998.6,N
1599123075.9,286046999.8,N
1599123095.7,286047000.2,N
1599123115.6,286046999.3,N
1599123135.4,286046996.8,N
1599123155.2,286046997.3,N
1599123175.1,286046999.2,N
1599123176.0,286046999.2,N
1599123195.8,286046997.5,N
1599123215.6,286047000.0,N
1599123235.5,286046998.1,N
1599123255.3,286046999.6,N
1599123275.2,286046998.0,N
1599123295.9,286046994.1,Y
1599123315.7,286046993.6,P
1599123335.6,286046996.2,N
1599123355.4,286046995.2,N
1599123375.2,286046994.7,N
1599123395.1,286046993.6,Y
1599123396.0,286046993.6,P
1599123415.8,286046995.4,P
1599123435.7,286046993.3,P
1599123455.5,286046993.8,Y
1599123475.3,286046999.2,P
1599123495.2,286046999.4,N
1599123515.0,286046999.4,N
1599123515.9,286046999.4,N
1599123535.8,286046998.6,N
1599123555.6,286046997.3,N
1599123575.4,286046995.4,N
1599123595.3,286046997.5,N
